(120347) Salacia
ephemeris date magn radius delta ra dec elong phase
Today5 Sep 202620.845.372 AU44.578 AU00h05m+27°19'141.5°0.8°
Opposition5 Oct 202620.745.377 AU44.465 AU00h03m+27°08'155.6°0.5°
(120347) Salacia - 2026-09-05
astro.vanbuitenen.nl


 
-1 year
-1 month
-1 day
Now
+1 day
+1 month
+1 year

The interactive orbit chart above shows the body's path through the solar system and its position at the given date. Green and blue lines are shown perpendicular to the ecliptic plane: Green if the path is above the ecliptic plane, blue if it is below. (Left-click and drag to rotate the view; Right-click and drag to move the view; Use scroll wheel to zoom in our out.)

The orbital elements of Salacia are:

            e (Eccentricity)                : 0.1045974
            a (Semimajor axis)              : 42.0559756
            i (Inclination)                 : 23.92721
            Ω (Longitude of ascending node) : 280.25441
            ω (Argument of perihelion)      : 308.98422
            M (Mean anomaly)                : 134.67029
            Epoch                           : 2026 Jun 09

            L (Longitude of perihelion)     : 231.77672
            B (Latitude of perihelion)      : -18.37662
            P (Orbital period in years)     : 272.74            
        

The light curve chart below shows the estimated development of the minor planet's magnitude.


The all-sky chart below shows the path of the minor planet over the same period as the light curve. The current position is marked yellow.





The following chart shows the path of the minor planet in the next few days. The field of view is optimized for (~10x50) binoculars and finderscopes.




Ephemerides:
Date       Time       RA (2000)    DEC (2000)    delta   radius  elong  phase   PA    magn
2026-09-05 00:00 UT   00 05 32.7   +27 19 32    44.578   45.372  141.5    0.8   209   20.8 
2026-09-05 23:06 UT   00 05 28.5   +27 19 21    44.571   45.372  142.2    0.8   208   20.8 
2026-09-06 00:00 UT   00 05 28.3   +27 19 21    44.571   45.372  142.3    0.8   208   20.8 
2026-09-07 00:00 UT   00 05 23.9   +27 19 09    44.564   45.372  143.0    0.8   207   20.8 
2026-09-08 00:00 UT   00 05 19.4   +27 18 57    44.557   45.373  143.7    0.8   206   20.8 
2026-09-09 00:00 UT   00 05 15.0   +27 18 44    44.550   45.373  144.4    0.7   205   20.8 
2026-09-10 00:00 UT   00 05 10.4   +27 18 30    44.543   45.373  145.1    0.7   204   20.8 
2026-09-11 00:00 UT   00 05 05.9   +27 18 15    44.537   45.373  145.8    0.7   202   20.8 
2026-09-12 00:00 UT   00 05 01.4   +27 18 00    44.531   45.373  146.4    0.7   201   20.8 
2026-09-13 00:00 UT   00 04 56.8   +27 17 44    44.525   45.374  147.1    0.7   200   20.8 
2026-09-14 00:00 UT   00 04 52.2   +27 17 27    44.520   45.374  147.7    0.7   198   20.8 
2026-09-15 00:00 UT   00 04 47.6   +27 17 10    44.515   45.374  148.3    0.7   197   20.8 
2026-09-16 00:00 UT   00 04 42.9   +27 16 52    44.510   45.374  148.9    0.7   195   20.8 
2026-09-17 00:00 UT   00 04 38.3   +27 16 33    44.505   45.374  149.5    0.6   194   20.8 
2026-09-18 00:00 UT   00 04 33.6   +27 16 14    44.500   45.374  150.1    0.6   192   20.8 
2026-09-19 00:00 UT   00 04 29.0   +27 15 54    44.496   45.375  150.6    0.6   190   20.8 
2026-09-20 00:00 UT   00 04 24.3   +27 15 33    44.492   45.375  151.2    0.6   189   20.8 
2026-09-21 00:00 UT   00 04 19.6   +27 15 11    44.489   45.375  151.7    0.6   187   20.8 
2026-09-22 00:00 UT   00 04 14.9   +27 14 49    44.485   45.375  152.1    0.6   185   20.8 
2026-09-23 00:00 UT   00 04 10.2   +27 14 26    44.482   45.375  152.6    0.6   183   20.8 
2026-09-24 00:00 UT   00 04 05.5   +27 14 03    44.479   45.375  153.0    0.6   181   20.8 
2026-09-25 00:00 UT   00 04 00.8   +27 13 39    44.476   45.376  153.4    0.6   179   20.8 
2026-09-26 00:00 UT   00 03 56.1   +27 13 14    44.474   45.376  153.8    0.6   177   20.8 
2026-09-27 00:00 UT   00 03 51.4   +27 12 49    44.472   45.376  154.1    0.6   175   20.8 
2026-09-28 00:00 UT   00 03 46.7   +27 12 23    44.470   45.376  154.4    0.5   173   20.7 
2026-09-29 00:00 UT   00 03 42.0   +27 11 57    44.469   45.376  154.7    0.5   170   20.7 
2026-09-30 00:00 UT   00 03 37.4   +27 11 30    44.467   45.376  154.9    0.5   168   20.7 
2026-10-01 00:00 UT   00 03 32.7   +27 11 02    44.466   45.377  155.1    0.5   166   20.7 
2026-10-02 00:00 UT   00 03 28.0   +27 10 34    44.465   45.377  155.3    0.5   163   20.7 
2026-10-03 00:00 UT   00 03 23.4   +27 10 05    44.465   45.377  155.4    0.5   161   20.7 
2026-10-04 00:00 UT   00 03 18.8   +27 09 36    44.465   45.377  155.5    0.5   159   20.7 
2026-10-05 00:00 UT   00 03 14.2   +27 09 06    44.465   45.377  155.5    0.5   156   20.7 


    Terminology:
            
    delta:  distance between minor planet and earth in AU
    radius: distance between minor planet and sun in AU
    magn:   magnitude (brightness) estimate    
    ra:     right ascension in hours (24h = 360deg)
    dec:    declination in degrees
    elong:  elongation in degrees (angle sun-earth-minor planet)    
    phase:  phase angle in degrees (angle sun-minor planet-earth)        
    AU:     Astronomical Unit (mean distance between earth and sun: 149597870.7 km
    

Orbital elements provided by the MPC (Minor Planet Center).
Calculations by a modified version of AAPlus, a C# implementation of the AA+ project by PJ Naughter from the algorithms presented in the book "Astronomical Algorithms" by Jean Meeus.
NGC2000 dso catalog and star labels from VizieR as provided by the Strasbourg astronomical Data Center.
Tycho2 catalog from the ESO archive.